Fort Lauderdale, FL

2:52 AM EDT on March 29, 2017 (GMT -0400)
Fort Lauderdale Executive

Weather History for KFXE - October, 2013

Change the Weather History Date:

Tuesday, October 15, 2013

  Actual Average Record
Temperature  
Mean Temperature 80 °F -  
Max Temperature 89 °F 86 °F 92 °F (1986)
Min Temperature 72 °F 70 °F 56 °F (1977)
Cooling Degree Days 15    
Growing Degree Days 30 (Base 50)    
Moisture  
Dew Point 69 °F    
Average Humidity 74    
Maximum Humidity 97    
Minimum Humidity 53    
Precipitation  
Precipitation 0.00 in - - ()
Sea Level Pressure  
Sea Level Pressure 29.93 in    
Wind  
Wind Speed 5 mph (NNE)    
Max Wind Speed 12 mph    
Max Gust Speed 20 mph    
Visibility 10 miles    
Events      
Averages and records for this station are not official NWS values.
T = Trace of Precipitation, MM = Missing Value Source: NWS Daily Summary

Daily Weather History Graph

Daily Weather History Graph

Search for Another Location

Airport or City:

Trip Planner

Search our weather history database for the weather conditions in past years. The results will help you decide how hot, cold, wet, or windy it might be!

Date:

Astronomy

Oct. 15, 2013 Rise Set
Actual Time 7:19 AM EDT 6:52 PM EDT
Civil Twilight 6:56 AM EDT 7:15 PM EDT
Nautical Twilight 6:29 AM EDT 7:42 PM EDT
Astronomical Twilight 6:02 AM EDT 8:09 PM EDT
Moon 4:41 PM EDT (10/15) 3:59 AM EDT (10/15)
Length of Visible Light 12h 19m
Length of Day
11h 32m
Waxing Gibbous, 87% of the Moon is Illuminated
Oct 15
Waxing Gibbous
Oct 18
Full
Oct 26
Last Quarter
Nov 3
New
Nov 10
First Quarter

Hourly Weather History & Observations

Time (EDT) Temp. Heat Index Dew Point Humidity Pressure Visibility Wind Dir Wind Speed Gust Speed Precip Events Conditions
12:53 AM 73.9 °F - 68.0 °F 82% 29.96 in 10.0 mi Calm Calm - N/A   Partly Cloudy
1:53 AM 73.9 °F - 69.1 °F 85% 29.95 in 10.0 mi NNW 4.6 mph - N/A   Partly Cloudy
2:53 AM 73.0 °F - 70.0 °F 90% 29.93 in 10.0 mi NNW 3.5 mph - N/A   Clear
3:53 AM 73.0 °F - 70.0 °F 90% 29.92 in 10.0 mi NNW 3.5 mph - N/A   Clear
4:53 AM 73.0 °F - 70.0 °F 90% 29.91 in 10.0 mi NNW 3.5 mph - N/A   Clear
5:53 AM 72.0 °F - 71.1 °F 97% 29.92 in 10.0 mi NNW 3.5 mph - N/A   Clear
6:53 AM 72.0 °F - 71.1 °F 97% 29.93 in 10.0 mi NNW 3.5 mph - N/A   Partly Cloudy
7:53 AM 73.0 °F - 70.0 °F 90% 29.95 in 10.0 mi North 3.5 mph - N/A   Scattered Clouds
8:53 AM 77.0 °F - 70.0 °F 79% 29.96 in 10.0 mi NNW 5.8 mph - N/A   Partly Cloudy
9:53 AM 81.0 °F 84.9 °F 71.1 °F 72% 29.97 in 10.0 mi Variable 4.6 mph - N/A   Partly Cloudy
10:53 AM 82.9 °F 87.0 °F 70.0 °F 65% 29.96 in 10.0 mi NNE 8.1 mph - N/A   Scattered Clouds
11:53 AM 82.9 °F 87.0 °F 70.0 °F 65% 29.96 in 10.0 mi North 6.9 mph - N/A   Scattered Clouds
12:53 PM 86.0 °F 90.1 °F 69.1 °F 57% 29.94 in 10.0 mi ENE 10.4 mph 18.4 mph N/A   Mostly Cloudy
1:53 PM 88.0 °F 92.1 °F 69.1 °F 53% 29.91 in 10.0 mi ENE 8.1 mph - N/A   Scattered Clouds
2:53 PM 87.1 °F 91.3 °F 69.1 °F 55% 29.89 in 10.0 mi NE 8.1 mph 19.6 mph N/A   Scattered Clouds
3:53 PM 84.9 °F 88.8 °F 69.1 °F 59% 29.89 in 10.0 mi ENE 9.2 mph - N/A   Scattered Clouds
4:53 PM 84.0 °F 87.8 °F 69.1 °F 61% 29.88 in 10.0 mi NE 8.1 mph - N/A   Scattered Clouds
5:53 PM 82.9 °F 85.8 °F 68.0 °F 60% 29.89 in 10.0 mi NE 11.5 mph - N/A   Clear
6:53 PM 81.0 °F 83.8 °F 68.0 °F 65% 29.90 in 10.0 mi NE 8.1 mph - N/A   Scattered Clouds
7:53 PM 80.1 °F 82.7 °F 68.0 °F 67% 29.91 in 10.0 mi ENE 5.8 mph - N/A   Clear
8:53 PM 79.0 °F - 68.0 °F 69% 29.93 in 10.0 mi NE 5.8 mph - N/A   Partly Cloudy
9:53 PM 79.0 °F - 70.0 °F 74% 29.95 in 10.0 mi ENE 5.8 mph - N/A   Clear
10:53 PM 78.1 °F - 69.1 °F 74% 29.95 in 10.0 mi NE 3.5 mph - N/A   Partly Cloudy
11:53 PM 78.1 °F - 68.0 °F 71% 29.95 in 10.0 mi ENE 3.5 mph - N/A   Partly Cloudy